FW6178 Weather Reports


Display with metric or nautical units.
time (UTC)temp
F
wind
direction
speed
MPH
gust
MPH
rain 1hr
in
rain 24hr
in
rain mn
in
humidity
%
barometer
mb
20260504220035 73 43 2.0 8.0 0.00 0.00 0.00 35 1010.8
20260504214535 73 46 3.0 6.0 0.00 0.00 0.00 37 1010.9
20260504213042 73 352 1.0 4.0 0.00 0.00 0.00 35 1010.9
20260504211535 72 9 0.0 6.0 0.00 0.00 0.00 37 1011.0
20260504210035 72 44 2.0 7.0 0.00 0.00 0.00 38 1011.2
20260504204539 71 352 0.0 6.0 0.00 0.00 0.00 38 1011.3
20260504203041 71 25 2.0 5.0 0.00 0.00 0.00 36 1011.2
20260504201533 71 23 1.0 5.0 0.00 0.00 0.00 38 1011.3
20260504200036 70 331 1.0 7.0 0.00 0.00 0.00 40 1011.3
20260504194537 70 32 3.0 5.0 0.00 0.00 0.00 38 1011.5
20260504193035 69 36 1.0 4.0 0.00 0.00 0.00 40 1011.4
20260504191540 69 17 1.0 6.0 0.00 0.00 0.00 40 1011.5
20260504190038 68 39 1.0 8.0 0.00 0.00 0.00 40 1011.5
20260504184535 68 75 2.0 4.0 0.00 0.00 0.00 45 1011.7
20260504183036 67 48 5.0 10.0 0.00 0.00 0.00 41 1011.8
20260504181535 67 24 1.0 6.0 0.00 0.00 0.00 41 1011.9
20260504180042 66 53 2.0 4.0 0.00 0.00 0.00 43 1011.9
20260504174541 65 329 2.0 4.0 0.00 0.00 0.00 44 1012.2
20260504173037 65 46 3.0 6.0 0.00 0.00 0.00 43 1012.2
20260504171536 64 334 2.0 7.0 0.00 0.00 0.00 44 1012.2
20260504081537 43 0 0.0 0.0 0.00 0.00 0.00 88 1009.9
20260504044536 52 0 0.0 0.0 0.00 0.00 0.00 74 1009.7
20260504043035 52 0 0.0 0.0 0.00 0.00 0.00 78 1009.4
20260504041535 53 0 0.0 0.0 0.00 0.00 0.00 76 1009.4
20260504040041 55 0 0.0 0.0 0.00 0.00 0.00 72 1009.5
20260504034543 56 0 0.0 0.0 0.00 0.00 0.00 70 1009.4
20260504033038 57 0 0.0 0.0 0.00 0.00 0.00 68 1009.3
20260504031544 59 0 0.0 0.0 0.00 0.00 0.00 64 1009.1
20260504030036 61 0 0.0 0.0 0.00 0.00 0.00 61 1009.1
20260504024534 64 0 0.0 0.0 0.00 0.00 0.00 55 1008.9
20260504023041 67 0 0.0 0.0 0.00 0.00 0.00 49 1008.9
20260504021542 71 0 0.0 1.0 0.00 0.00 0.00 45 1008.8
20260504020041 72 0 0.0 1.0 0.00 0.00 0.00 38 1008.8
20260504014536 73 48 2.0 4.0 0.00 0.00 0.00 39 1008.9
20260504013037 74 46 0.0 2.0 0.00 0.00 0.00 39 1008.9
20260504011535 75 46 1.0 3.0 0.00 0.00 0.00 35 1008.9
20260504010034 75 48 1.0 4.0 0.00 0.00 0.00 37 1008.9
20260504004539 77 70 1.0 2.0 0.00 0.00 0.00 35 1009.2
20260504003045 80 266 0.0 3.0 0.00 0.00 0.00 29 1009.4
20260504001541 80 288 1.0 3.0 0.00 0.00 0.00 28 1009.6
20260504000054 80 245 1.0 3.0 0.00 0.00 0.00 28 1009.5
20260503234551 80 297 0.0 3.0 0.00 0.00 0.00 30 1009.5
20260503233041 80 233 1.0 3.0 0.00 0.00 0.00 31 1009.7
20260503231539 80 313 1.0 4.0 0.00 0.00 0.00 30 1009.8
20260503230036 80 213 1.0 4.0 0.00 0.00 0.00 31 1010.1
20260503224537 80 243 1.0 4.0 0.00 0.00 0.00 29 1010.3
20260503223039 79 240 2.0 4.0 0.00 0.00 0.00 29 1010.3
20260503221546 79 309 1.0 4.0 0.00 0.00 0.00 33 1010.7